Location: Jihlava
(49.4000°N, 15.5830°E)
Time: 01:16:13
(UTC+02:00)

ISS - Visible Passes

Search period start: 06 May 2021 00:00
Search period end: 16 May 2021 00:00
Orbit: 418 x 421 km, 51.6° (Epoch: 05 May)

Date Brightness Start Highest point End Pass type
(mag) Time Alt. Az. Time Alt. Az. Time Alt. Az.
06 May -3.8 02:48:19 68° SE 02:48:19 68° SE 02:51:36 10° ENE visible
06 May -3.2 04:21:48 10° W 04:25:08 57° N 04:28:30 10° ENE visible
07 May -2.1 02:02:24 26° E 02:02:24 26° E 02:04:08 10° ENE visible
07 May -3.4 03:35:20 18° W 03:37:39 62° N 03:41:02 10° ENE visible
08 May -0.9 01:16:27 11° E 01:16:27 11° E 01:16:37 10° E visible
08 May -3.6 02:49:24 48° W 02:50:11 73° NNW 02:53:34 10° ENE visible
08 May -3.2 04:23:52 10° WNW 04:27:13 59° N 04:30:34 10° E visible
09 May -3.2 02:03:25 54° ENE 02:03:25 54° ENE 02:06:07 10° ENE visible
09 May -3.1 03:36:23 10° W 03:39:43 56° N 03:43:03 10° E visible
10 May -1.7 01:17:25 21° ENE 01:17:25 21° ENE 01:18:40 10° ENE visible
10 May -3.2 02:50:21 23° WNW 02:52:13 57° N 02:55:34 10° ENE visible
10 May -3.6 04:25:50 10° WNW 04:29:14 80° NNE 04:32:37 10° ESE visible
11 May -3.4 02:04:18 56° NW 02:04:42 62° N 02:08:04 10° ENE visible
11 May -3.4 03:38:23 10° WNW 03:41:45 66° N 03:45:07 10° E visible
12 May -2.7 01:18:13 42° ENE 01:18:13 42° ENE 01:20:37 10° ENE visible
12 May -3.2 02:51:09 12° WNW 02:54:15 59° N 02:57:36 10° E visible
12 May -3.7 04:27:47 10° WNW 04:31:08 59° SSW 04:34:27 10° SE visible
13 May -1.6 00:32:03 19° ENE 00:32:03 19° ENE 00:33:09 10° ENE visible
13 May -3.1 02:04:58 24° WNW 02:06:44 56° N 02:10:05 10° E visible
13 May -3.9 03:40:19 10° WNW 03:43:42 80° SSW 03:47:05 10° ESE visible
13 May -1.0 23:45:40 10° ENE 23:45:40 10° ENE 23:45:41 10° ENE visible
14 May -3.2 01:18:34 46° NW 01:19:14 57° N 01:22:34 10° ENE visible
14 May -3.7 02:52:52 10° WNW 02:56:15 80° NNE 02:59:38 10° ESE visible
14 May -2.8 04:29:53 10° W 04:32:51 28° SW 04:35:48 10° SSE visible
14 May -1.7 21:18:04 10° SE 21:18:44 10° SE 21:19:26 10° ESE visible
14 May -3.6 22:51:39 10° SW 22:54:55 49° SSE 22:58:12 10° ENE visible
15 May -3.3 00:28:22 10° W 00:31:43 62° N 00:35:05 10° ENE visible
15 May -3.4 02:05:24 10° WNW 02:08:46 67° NNE 02:12:07 10° E visible
15 May -3.4 03:42:18 10° WNW 03:45:30 41° SSW 03:48:42 10° SE visible
15 May -3.2 22:04:28 10° SSW 22:07:33 34° SSE 22:10:39 10° E visible
15 May -3.6 23:40:51 10° W 23:44:13 72° NNW 23:47:36 10° ENE visible
